THOR ABLESTAR DEB, 548

Orbit data source: Space-Track

THOR ABLESTAR DEB, 548 is space debris in LEO originally from a launch on Thu, 29 Jun 1961 UTC launched from the Air Force Eastern Test Range (AFETR). Debris objects in space refer to the collection of defunct objects orbiting the Earth. Examples of debris include non-operational satellites, rocket bodies, and fragments generated from explosions, collisions, or faulty payload assembly.

Loading next visibility...
Identifier
548, 1961-015GH
Orbit
LEO
Country
Flag of USUS
Related business
Manufacturer
Unknown
Mission
Spacecraft
Bus & Motor
Unknown
Mass
Unknown
Launch date (UTC)
1961-06-29 (65 years ago)
Launch vehicle
Unknown
Launch site
Air Force Eastern Test Range (AFETR)
Object type
Payload
Rocket body
Debris
Shape & HBR
Unknown shape, 0.1 m
Radar Cross Section
Small (<0.1 m²)

Expand to show TLE details & history
Last TLE update: 5 hours ago

TLE from 5 hours ago
0 THOR ABLESTAR DEB
1   548U 61015GH  26126.86295215  .00001644  00000-0  23974-3 0  9998
2   548  66.6702  62.9925 0092137 151.4239 209.1978 14.75906818397729
Epoch: 2026-05-06T20:42Z
TLE epoch observation values (Epoch: 2026-05-06T20:42:39.065Z)
Latitude
-0.00006°
Longitude
-112.38764°
Altitude
701.036 km
Speed
7.476 km/s
True Right ascension
04h 11m 58s
True Declination
0° 00' 00"
Sunlit
Object was in daylight at epoch
Visualization orbit readout
Latitude
Unknown
Longitude
Unknown
Altitude
Unknown
Speed
Unknown
Apparent Right ascension
Unknown
Apparent Declination
Unknown
Sunlit
N/A
Visualization observer readout
Local Sidereal Time
10:08:49
Azimuth
Unknown
Elevation
Unknown
Doppler factor
Unknown
Orbital elements
Apogee altitude
705.286 km
Perigee altitude
575.949 km
Semi-major axis
7,018.755 km
Eccentricity
0.00921
Inclination
66.6702°
RAAN
62.9925°
Arg. of periapsis
151.4239°
True anomaly
208.68788°
Mean anomaly
209.1978°
Eccentric anomaly
208.94233°
Mean motion
3.69108 °/min
Orbital period
97.53 mins
BSTAR
0.00023974
Loading maneuver chart data...
Computing Atmospheric mass density...

Documentation

Showing up to 5 results
|